sat.trackr.live / text

‹ back to catalog

STARLINK-2685

NORAD 48468 · 2021-040AS

PAYLOAD ACTIVE UNKNOWN

§ Identity

Operator
Country
US
Launch date
2021-05-09
Launch site
AFETR
Launch vehicle
Mass (kg)
RCS (m²)

Purposes: comms

External: N2YO · Heavens-Above · Gunter

§ Orbital elements

Epoch: 2026-09-11T15:43:42.786912Z

Period
93.84 min
Inclination
53.1585°
Eccentricity
0.0001048
Mean motion
15.34505743 rev/d
Perigee alt
461.7 km
Apogee alt
463.1 km
Semi-major
6,840.5 km
B*
1.0003e-3
RAAN
45.7066°
Arg perigee
50.0237°
Mean anomaly
310.0858°
Rev number
29,500

§ Raw data

STARLINK-26851 48468U 21040AS  26254.65535633  .00033686  00000+0  10003-2 0  99932 48468  53.1585  45.7066 0001048  50.0237 310.0858 15.34505743295005

JSON: /api/v1/satellites/48468 · /tle

For live sub-satellite position, see the globe view (requires WebGL).

§ Visibility from observer

Set your observer location to see the next 7 days of passes ≥ 10°. The values pass through the URL so the page stays shareable.

No JS? Fill the form by hand. The geolocation button needs JavaScript.